Find Starlink 32604

NORAD ID: 62070 Int'l Des: 2024-217 Owner: SPXS Country: US Constellation: starlink operational
LEOCIRCULAR

現在のビュー

3D地球を読み込み中...

About Starlink 32604

Starlink 32604 (NORAD 62070) is a starlink constellation satellite (v2 mini) launched Nov 24, 2024 by SPXS of US. It operates in LEO, CIRCULAR orbit with a mass of 730.00 kg.

次回通過

Passes for default location (London). Set your location on the main map for personalized predictions.

高度履歴

Loading altitude history...

軌道要素

1 62070U 24217P 26265.55585136 .00016076 00000-0 48585-3 0 9993
2 62070 53.1607 355.8442 0001084 90.8365 269.2762 15.34403962103616
Epoch: Sep 22, 2026 • Age: 13 hours

現在のステータス

高度 467.0 km
遠地点 / 近地点 N/A
速度 7.63 km/s
衛星直下点 -15.36°S, 142.42°E
打ち上げ日 Nov 24, 2024
運用期間 1.8 years
タイプ internet

技術仕様

分類 Payload
質量 730.00 kg
乾燥質量 700.00 kg
長さ 0.30 m
スパン 29.00 m
形状 ? Box + pan
製造者 SPXS
バスタイプ Starlink V2M
フェーズステータス In Orbit
所有者/国 SPXS/US

Most Searched